Volver al catálogo

STARLINK-6158

ActivoComunicacionesVLEO
NORAD 56375·PAYLOAD·🇺🇸 United States

Lanzado May 4, 2023 desde Cape Canaveral Space Force Station

Loading…

Próximos Pases (próximas 24 horas)

TLE

ActualizadoSource: CelesTrak SupGP

Época: Sep 14, 2026, 21:53 UTC

1 56375C 23061B   26257.91229167  .00003052  00000+0  11052-3 0  2575
2 56375  43.0021 209.0908 0001506 260.0341   2.9689 15.27584974    11

Sigue STARLINK-6158 en tiempo real con AllMySat

Download on the App Store